Weather Roundup
Issued by NWS Chicago, IL

Home | Current Version | Previous Version | Graphics & Text | Print | Product List | Glossary On
Versions: 1 2 3 4 5 6 7 8 9 10 11 12 13 14 15 16 17 18 19 20 21 22 23 24 25 26 27 28 29 30 31 32 33 34 35 36 37 38 39 40 41 42 43 44 45 46 47 48 49 50
000
NZUS59 KLOT 301958
HRRLOT

CHICAGO AREA WEATHER ROUNDUP
NATIONAL WEATHER SERVICE CHICAGO/ROMEOVILLE IL
300 PM CDT SAT AUG 30 2014

NOTE: "FAIR" INDICATES FEW OR NO CLOUDS BELOW 12,000 FEET WITH NO
SIGNIFICANT WEATHER AND/OR OBSTRUCTIONS TO VISIBILITY.

* THESE STATIONS ARE NOT UNDER NWS QUALITY CONTROL. THEY ALSO MAY NOT
  REPORT WEATHER SUCH AS PRECIPITATION OR FOG.

ILZ005-006-012>014-019>023-302100-
NORTHEAST ILLINOIS

CITY           SKY/WX    TMP DP  RH WIND       PRES   REMARKS
OHARE          PTSUNNY   81  64  56 W20G31    29.84F HX  82
MIDWAY         PTSUNNY   86  68  54 W17G29    29.84F HX  89
AURORA         PTSUNNY   81  66  60 SW14G23   29.86F HX  83
WAUKEGAN       MOSUNNY   79  64  60 SW18G29   29.82S HX  81
DUPAGE AIRPORT MOSUNNY   82  67  60 SW18G26   29.85F HX  84
WHEELING       PTSUNNY   83  66  56 W14G23    29.85S HX  85
NORTHERLY IS     N/A     83  63  50 S23         N/A  HX  84
$$

WIZ051-052-058>065-066-070>072-302100-
SOUTHEAST WISCONSIN

CITY           SKY/WX    TMP DP  RH WIND       PRES   REMARKS
MILWAUKEE      PTSUNNY   76  66  71 SW20G26   29.80S
KENOSHA*       LGT RAIN  76  67  73 W16       29.83S
RACINE*        CLOUDY    76  65  68 SW13G24   29.83S
WAUKESHA       PTSUNNY   73  66  78 SW13G23   29.81F
$$

INZ001>003-010>013-019-020-302100-
NORTHWEST INDIANA

CITY           SKY/WX    TMP DP  RH WIND       PRES   REMARKS
GARY*          PTSUNNY   82  72  69 SW13G25   29.86F HX  87
MICHIGAN CITY* NOT AVBL
RENSSELAER*    NOT AVBL
VALPARAISO     CLOUDY    79  69  71 S12       29.89F HX  81
$$

LMZ740>746-302100-
SOUTHERN LAKE MICHIGAN

STATION/POSITION TIME  SKY/WX   TEMP WIND        PRES    VSBY
                                AIR  DIR/SP/G
                 (UTC)          (F)  (DEG/KT/KT) (MB)    (MI)
HARRISON CRIB    1900            80  230/ 25/ 31   N/A
BURNHAM HARBOR   1900            83  270/ 11/ 20   N/A
CALUMET HARBOR   1900            81  220/  9/ 21 1009.6F
BURNS HARBOR     NOT AVBL
MICHIGAN CITY    1900            79  170/ 21/ 26   N/A
$$

ABBREVIATIONS USED IN REMARKS
   TC - TEMPERATURE IN CELSIUS
  WCI - WIND CHILL INDEX
   HX - HEAT INDEX
  VSB - VISIBILITY
$$


USA.gov is the U.S. government's official web portal to all federal, state and local government web resources and services.